Back to catalog

FENGYUN 1C DEB

AliveSSO
NORAD 33722·DEBRIS·🇨🇳 China

Launched May 10, 1999 from Taiyuan Satellite Launch Center

Loading…

Next Passes (next 24 hours)

TLE

FreshSource: Space-Track

Epoch: Sep 12, 2026, 18:18 UTC

1 33722U 99025DHK 26255.76271236  .00000657  00000-0  27883-3 0  9995
2 33722  98.5660 267.3806 0157596 175.8827 184.3690 14.22054661960418

Track FENGYUN 1C DEB in real time with AllMySat

Download on the App Store